Date String (YYYY-MM-DD hh:mm:ss) UTC,Instrument flags,Ambient pressure (hPa),Sample flow (lpm),Bypass flow (lpm),Sample temperature (°C),Ambient temperature (°C),ASC tube jacket temperature (°C),LED temperature (°C),Box temperature (°C),Sample RH (%),Span deviation,Mass concentration (μg/m³),Mass concentration (μg/m³),Mass concentration (μg/m³)
DateTimeUTC,F1_M11,P_M11,Q1_M11,Q2_M11,T1_M11,T2_M11,T3_M11,T4_M11,T5_M11,U1_M11,ZSPAN_M11,X0_M11,X2_M11,X1_M11
2021-12-22 15:00:00,,0822.4,5.00,0.00,23.0,22.3,00.0,32.0,24.8,05.2,0000.0,0000.74,0000.31,0000.24
2021-12-22 15:01:00,,0822.4,4.99,0.00,23.0,22.3,00.0,32.1,24.8,05.2,0000.0,0000.70,0000.29,0000.24
2021-12-22 15:02:00,,0822.4,5.01,0.00,23.1,22.4,00.0,32.0,24.8,05.1,0000.0,0000.71,0000.30,0000.24
2021-12-22 15:03:00,,0822.3,5.00,0.00,23.1,22.4,00.0,32.0,24.8,05.1,0000.0,0000.76,0000.32,0000.25
2021-12-22 15:04:00,,0822.3,5.00,0.00,23.1,22.4,00.0,32.1,24.9,05.2,0000.0,0000.79,0000.33,0000.25
2021-12-22 15:05:00,,0822.3,5.00,0.00,23.1,22.5,00.0,32.1,24.9,05.2,0000.0,0000.84,0000.32,0000.25
2021-12-22 15:06:00,,0822.2,5.01,0.00,23.1,22.5,00.0,32.1,24.9,05.2,0000.0,0000.88,0000.34,0000.26
2021-12-22 15:07:00,,0822.2,5.00,0.00,23.2,22.5,00.0,32.1,24.9,05.0,0000.0,0000.66,0000.36,0000.27
2021-12-22 15:08:00,,0822.2,5.01,0.00,23.2,22.6,00.0,32.1,25.0,05.0,0000.0,0000.76,0000.37,0000.27
2021-12-22 15:09:00,,0822.1,4.99,0.00,23.2,22.6,00.0,32.1,25.0,05.1,0000.0,0000.79,0000.38,0000.27
2021-12-22 15:10:00,,0822.2,5.00,0.00,23.2,22.6,00.0,32.1,25.0,05.1,0000.0,0000.81,0000.38,0000.27
2021-12-22 15:11:00,,0822.2,4.99,0.00,23.2,22.6,00.0,32.1,25.0,05.1,0000.0,0000.83,0000.39,0000.27
2021-12-22 15:12:00,,0822.2,5.01,0.00,23.3,22.6,00.0,32.1,25.0,05.0,0000.0,0000.97,0000.41,0000.27
2021-12-22 15:13:00,,0822.2,4.99,0.00,23.3,22.7,00.0,32.1,25.0,05.0,0000.0,0001.03,0000.42,0000.27
2021-12-22 15:14:00,,0822.2,4.99,0.00,23.3,22.7,00.0,32.2,25.1,05.1,0000.0,0001.00,0000.41,0000.27
2021-12-22 15:15:00,,0822.2,5.01,0.00,23.3,22.7,00.0,32.2,25.1,05.2,0000.0,0001.00,0000.42,0000.28
2021-12-22 15:16:00,,0822.3,4.99,0.00,23.3,22.8,00.0,32.2,25.1,05.2,0000.0,0000.91,0000.41,0000.28
2021-12-22 15:17:00,,0822.4,5.01,0.00,23.4,22.8,00.0,32.2,25.1,05.2,0000.0,0000.87,0000.40,0000.27
2021-12-22 15:18:00,,0822.4,4.99,0.00,23.4,22.8,00.0,32.2,25.2,05.2,0000.0,0000.77,0000.38,0000.27
2021-12-22 15:19:00,,0822.4,4.99,0.00,23.4,22.8,00.0,32.2,25.2,05.2,0000.0,0000.66,0000.36,0000.27
2021-12-22 15:20:00,,0822.4,5.00,0.00,23.4,22.8,00.0,32.3,25.2,05.2,0000.0,0000.62,0000.35,0000.27
2021-12-22 15:21:00,,0822.4,5.01,0.00,23.5,22.9,00.0,32.3,25.3,05.2,0000.0,0000.77,0000.36,0000.26
2021-12-22 15:22:00,,0822.4,4.99,0.00,23.5,22.9,00.0,32.3,25.3,05.2,0000.0,0001.17,0000.35,0000.26
2021-12-22 15:23:00,,0822.4,5.00,0.00,23.5,22.9,00.0,32.3,25.3,05.2,0000.0,0001.07,0000.35,0000.26
2021-12-22 15:24:00,,0822.3,4.99,0.00,23.5,23.0,00.0,32.3,25.4,05.2,0000.0,0001.08,0000.36,0000.26
2021-12-22 15:25:00,,0822.4,5.01,0.00,23.6,23.0,00.0,32.4,25.4,05.2,0000.0,0001.06,0000.36,0000.26
2021-12-22 15:26:00,,0822.4,5.01,0.00,23.6,23.0,00.0,32.4,25.5,05.2,0000.0,0001.01,0000.33,0000.25
2021-12-22 15:27:00,,0822.4,5.00,0.00,23.6,23.0,00.0,32.4,25.5,05.2,0000.0,0001.04,0000.34,0000.26
2021-12-22 15:28:00,,0822.4,5.00,0.00,23.7,23.1,00.0,32.4,25.5,05.1,0000.0,0001.10,0000.36,0000.26
2021-12-22 15:29:00,,0822.4,5.00,0.00,23.7,23.1,00.0,32.5,25.5,05.1,0000.0,0001.10,0000.36,0000.26
2021-12-22 15:30:00,,0822.4,5.01,0.00,23.7,23.1,00.0,32.5,25.5,05.1,0000.0,0001.12,0000.37,0000.26
2021-12-22 15:31:00,,0822.4,4.99,0.00,23.7,23.1,00.0,32.5,25.5,05.2,0000.0,0001.13,0000.37,0000.26
2021-12-22 15:32:00,,0822.4,5.01,0.00,23.7,23.2,00.0,32.5,25.6,05.2,0000.0,0000.97,0000.36,0000.25
2021-12-22 15:33:00,,0822.4,4.99,0.00,23.8,23.2,00.0,32.6,25.6,05.2,0000.0,0000.55,0000.36,0000.26
2021-12-22 15:34:00,,0822.5,5.01,0.00,23.8,23.2,00.0,32.6,25.6,05.2,0000.0,0000.53,0000.35,0000.26
2021-12-22 15:35:00,,0822.6,4.99,0.00,23.8,23.2,00.0,32.6,25.6,05.2,0000.0,0000.46,0000.32,0000.26
2021-12-22 15:36:00,,0822.6,4.99,0.00,23.8,23.3,00.0,32.6,25.7,05.2,0000.0,0000.46,0000.31,0000.25
2021-12-22 15:37:00,,0822.6,5.01,0.00,23.9,23.3,00.0,32.6,25.7,05.1,0000.0,0000.54,0000.33,0000.26
2021-12-22 15:38:00,,0822.6,5.00,0.00,23.9,23.3,00.0,32.7,25.7,05.1,0000.0,0000.52,0000.31,0000.25
2021-12-22 15:39:00,,0822.6,5.00,0.00,23.9,23.3,00.0,32.7,25.7,05.1,0000.0,0000.45,0000.29,0000.24
2021-12-22 15:40:00,,0822.5,5.02,0.00,24.0,23.3,00.0,32.7,25.8,05.1,0000.0,0000.48,0000.30,0000.23
2021-12-22 15:41:00,,0822.5,4.99,0.00,24.0,23.3,00.0,32.7,25.8,05.1,0000.0,0000.46,0000.29,0000.24
2021-12-22 15:42:00,,0822.6,5.00,0.00,24.0,23.4,00.0,32.8,25.9,05.1,0000.0,0000.44,0000.28,0000.24
2021-12-22 15:43:00,,0822.6,4.99,0.00,24.0,23.4,00.0,32.8,25.9,05.1,0000.0,0000.45,0000.29,0000.24
2021-12-22 15:44:00,,0822.6,5.01,0.00,24.1,23.4,00.0,32.8,26.0,05.1,0000.0,0000.46,0000.30,0000.24
2021-12-22 15:45:00,,0822.6,5.00,0.00,24.1,23.4,00.0,32.8,26.0,05.1,0000.0,0000.46,0000.29,0000.24
2021-12-22 15:46:00,,0822.6,5.00,0.00,24.1,23.5,00.0,32.9,26.0,05.2,0000.0,0001.12,0000.35,0000.24
2021-12-22 15:47:00,,0822.6,5.01,0.00,24.1,23.5,00.0,32.9,26.0,05.2,0000.0,0001.81,0000.42,0000.25
2021-12-22 15:48:00,,0822.6,5.01,0.00,24.2,23.5,00.0,32.9,26.1,05.1,0000.0,0003.19,0000.44,0000.26
2021-12-22 15:49:00,,0822.7,4.99,0.00,24.2,23.5,00.0,32.9,26.1,05.1,0000.0,0003.95,0000.52,0000.26
2021-12-22 15:50:00,,0822.6,5.01,0.00,24.2,23.6,00.0,33.0,26.1,05.2,0000.0,0004.05,0000.57,0000.27
2021-12-22 15:51:00,,0822.7,4.99,0.00,24.2,23.6,00.0,33.0,26.1,05.1,0000.0,0004.02,0000.56,0000.27
2021-12-22 15:52:00,,0822.7,5.01,0.00,24.3,23.6,00.0,33.0,26.1,05.2,0000.0,0004.02,0000.56,0000.27
2021-12-22 15:53:00,,0822.6,5.00,0.00,24.3,23.6,00.0,33.0,26.2,05.2,0000.0,0004.25,0000.58,0000.27
2021-12-22 15:54:00,,0822.6,5.00,0.00,24.3,23.7,00.0,33.1,26.2,05.3,0000.0,0004.73,0000.66,0000.28
2021-12-22 15:55:00,,0822.6,5.00,0.00,24.3,23.7,00.0,33.1,26.2,05.1,0000.0,0004.99,0000.70,0000.28
2021-12-22 15:56:00,,0822.6,5.00,0.00,24.4,23.7,00.0,33.1,26.2,05.1,0000.0,0005.08,0000.72,0000.29
2021-12-22 15:57:00,,0822.7,5.01,0.00,24.4,23.7,00.0,33.1,26.3,05.1,0000.0,0004.48,0000.71,0000.28
2021-12-22 15:58:00,,0822.7,4.99,0.00,24.4,23.8,00.0,33.2,26.3,05.2,0000.0,0003.93,0000.67,0000.28
2021-12-22 15:59:00,,0822.7,4.99,0.00,24.4,23.8,00.0,33.2,26.3,05.2,0000.0,0002.37,0000.66,0000.28
